Location: ??????
(55.2000°N, 38.3000°E)
Time: 00:43:37
(UTC+00:00)

CZ-2C R/B - Pass Details

Date: 15 November 2025
Orbit: 664 x 773 km, 98.4° (Epoch: 12 December)

Event Time Altitude Azimuth Distance (km) Brightness Sun altitude
Rises 03:12:07 0° 11° (N) 3,203 5.7 -15.0°
Reaches altitude 10° 03:14:40 10° 359° (N) 2,290 4.8 -14.7°
Maximum altitude 03:18:52 27° 303° (WNW) 1,438 3.4 -14.1°
Enters shadow 03:21:35 17° 259° (W) 1,855 3.9 -13.7°
